map of MLE home
Great Circle Mapper logo
MLE - Airport
Location
City:  Malé, Hulhulé Island, Maldives
Name:Malé International Airport
ICAO / IATA:VRMM / MLE

Details
Type:Airport (Aerodrome, Airfield)
Use:Public/Civil, International (customs port of entry)
Latitude:4°11'30"N (4.191667)
Longitude:73°31'45"E (73.529167)
Elevation:6 ft (2 m)
Variation:3.04°W (WMM2015 magnetic declination)
0.08° annual change
Runways:1
Longest:10499 × 148 ft (3200 × 45 m), paved

Time
Time Zone:UTC+5
Local Time:

Weather
METAR:VRMM 210900Z 18005KT 9999 FEW017 FEW018CB OVC110 30/25 Q1009 CB SW TEMPO 4000 TSRA
TAF:VRMM 210500Z 2106/2212 27008KT 9000 FEW017 BKN120
TEMPO 2108/2113 4000 TSRA/-RA FEW010 SCT015 FEW016CB OVC100

Related Locations
Nearby:
Farthest:SEII: 11355 mi / 18274 km
Puerto Villamil [General Villamil], Isabela Island, W, EC

Find:

   beyond  
but within

Other Information
Maps:
NOTAMs:
Links:
Sources:

  
flag of Maldives   

Airport Diagram

Airport diagram for MLE

Airport diagram PDF

Sectional Chart

Flight Planning
at skyvector.com

Satellite Image

Google Maps Satellite View

 

Copyright © 2004-2015 Karl L. Swartz. All rights reserved.
The Great Circle Mapper name and logo are trademarks of the Great Circle Mapper.
All other trademarks mentioned herein belong to their respective owners.
Please see credits for attibutions and further copyright information.

  Follow gcmap on Facebook Follow gcmap on Twitter Follow gcmap on Google+

hCard Microformat

Geo Microformat